sat.trackr.live / text

‹ back to catalog

ONEWEB-0648

NORAD 55811 · 2023-029R

PAYLOAD ACTIVE UNKNOWN

§ Identity

Operator
Country
UK
Launch date
2023-03-09
Launch site
AFETR
Launch vehicle
Mass (kg)
RCS (m²)

Purposes: comms

External: N2YO · Heavens-Above · Gunter

§ Orbital elements

Epoch: 2026-05-25T02:59:43.977120Z

Period
109.55 min
Inclination
87.8943°
Eccentricity
0.0001272
Mean motion
13.14504666 rev/d
Perigee alt
1,204.8 km
Apogee alt
1,206.7 km
Semi-major
7,583.9 km
B*
-2.7517e-4
RAAN
294.3023°
Arg perigee
67.8136°
Mean anomaly
292.3129°
Rev number
15,636

§ Raw data

ONEWEB-06481 55811U 23029R   26145.12481455 -.00000089  00000+0 -27517-3 0  99972 55811  87.8943 294.3023 0001272  67.8136 292.3129 13.14504666156362

JSON: /api/v1/satellites/55811 · /tle

For live sub-satellite position, see the globe view (requires WebGL).

§ Visibility from observer

Set your observer location to see the next 7 days of passes ≥ 10°. The values pass through the URL so the page stays shareable.

No JS? Fill the form by hand. The geolocation button needs JavaScript.